Notices

What's New in latest Release from April 7th, 2021:

- Updated Glossary, including Speed of Maximum Gust, and Total Hourly Precipitation

- Updated national and regional climate services offices contacts and prices information

- Addition of station inventory lists for 1981-2010, 1971-2000, and 1961-1990 Normals.

Please note that as of June 10, 2021 UTC dates are available for all years 2004-present, and DBA is working on populating the remaining years (2003 to 1953).

If you haven't already, please take our survey and provide feedback about our website: https://eccc.sondage-survey.ca/f/LanguageSelection.aspx?s=442ca660-fcf1-47c0-95a9-59707d6fd709

Hourly Data Report for August 19, 2017

TORONTO CITY
ONTARIO

43°40'00.000" N
79°24'00.000" W
112.50 m
6158355
71508
XTO

Download Data

Hourly Data (August 2017)
Hourly Data Report for August 19, 2017
TIME
LST
Temp Definition
°C
Dew Point Definition
°C
Rel Hum Definition
%
Precip. Amount Definition
mm

Wind Dir Definition
10's deg

Wind Spd Definition
km/h
Visibility Definition
km
Stn Press Definition
kPa
Hmdx Definition


Wind Chill Definition


Weather Definition


00:00 21.4 16.0 71 0.0 LegendMM LegendMM   99.57 26   LegendNANA
01:00 21.3 15.9 72 0.0 LegendMM LegendMM   99.57 26   LegendNANA
02:00 20.7 15.7 73 0.0 LegendMM LegendMM   99.52 25   LegendNANA
03:00 19.9 15.8 77 0.0 LegendMM LegendMM   99.50     LegendNANA
04:00 19.7 15.3 76 0.0 LegendMM LegendMM   99.49     LegendNANA
05:00 19.0 14.6 75 0.0 LegendMM LegendMM   99.51     LegendNANA
06:00 19.3 14.6 74 0.0 LegendMM LegendMM   99.57     LegendNANA
07:00 19.4 14.6 74 0.0 LegendMM LegendMM   99.62     LegendNANA
08:00 20.6 14.7 69 0.0 LegendMM LegendMM   99.64     LegendNANA
09:00 21.9 14.4 62 0.0 LegendMM LegendMM   99.66 26   LegendNANA
10:00 21.5 14.4 64 0.0 LegendMM LegendMM   99.70 25   LegendNANA
11:00 23.8 14.4 56 0.0 LegendMM LegendMM   99.68 27   LegendNANA
12:00 23.9 15.1 58 0.0 LegendMM LegendMM   99.65 28   LegendNANA
13:00 23.9 13.7 53 0.0 LegendMM LegendMM   99.66 27   LegendNANA
14:00 23.8 14.1 55 0.0 LegendMM LegendMM   99.67 27   LegendNANA
15:00 23.4 13.6 54 0.0 LegendMM LegendMM   99.66 27   LegendNANA
16:00 23.6 13.8 54 0.0 LegendMM LegendMM   99.66 27   LegendNANA
17:00 22.5 12.0 51 0.0 LegendMM LegendMM   99.71 25   LegendNANA
18:00 21.9 13.1 57 0.0 LegendMM LegendMM   99.75 25   LegendNANA
19:00 21.4 13.1 59 0.0 LegendMM LegendMM   99.83     LegendNANA
20:00 21.0 13.2 61 0.0 LegendMM LegendMM   99.90     LegendNANA
21:00 20.0 13.3 65 0.0 LegendMM LegendMM   99.96     LegendNANA
22:00 19.3 12.6 65 0.0 LegendMM LegendMM   100.00     LegendNANA
23:00 18.7 13.0 69 0.0 LegendMM LegendMM   100.08     LegendNANA

Notes on Data Quality.

Legend

  • E = Estimated
  • M = Missing
  • NA = Not Available*
  • [empty] = Indicates an unobserved value
Date modified: